| time (UTC) | temp C | wind direction | speed KPH | gust KPH | rain 1hr cm | rain 24hr cm | rain mn cm | humidity % | barometer mb |
| 20260906103034 | 16 | 0 | 0.0 | 0.0 | 0.00 | 0.00 | 0.00 | 92 | 1018.7 |
| 20260906101537 | 16 | 0 | 0.0 | 0.0 | 0.00 | 0.00 | 0.00 | 92 | 1018.5 |
| 20260906100033 | 17 | 0 | 0.0 | 0.0 | 0.00 | 0.00 | 0.00 | 92 | 1018.4 |
| 20260906094539 | 17 | 0 | 0.0 | 0.0 | 0.00 | 0.00 | 0.00 | 92 | 1018.3 |
| 20260906093038 | 17 | 0 | 0.0 | 0.0 | 0.00 | 0.00 | 0.00 | 91 | 1018.3 |
| 20260906091536 | 17 | 0 | 0.0 | 0.0 | 0.00 | 0.00 | 0.00 | 91 | 1018.3 |
| 20260906090036 | 17 | 0 | 0.0 | 0.0 | 0.00 | 0.00 | 0.00 | 91 | 1018.2 |
| 20260906084545 | 17 | 0 | 0.0 | 0.0 | 0.00 | 0.00 | 0.00 | 91 | 1018.0 |
| 20260906083036 | 17 | 0 | 0.0 | 6.4 | 0.00 | 0.00 | 0.00 | 91 | 1018.0 |
| 20260906081533 | 18 | 0 | 0.0 | 4.8 | 0.00 | 0.00 | 0.00 | 90 | 1017.9 |
| 20260906080035 | 18 | 57 | 1.6 | 4.8 | 0.00 | 0.00 | 0.00 | 90 | 1017.9 |
| 20260906074536 | 18 | 64 | 0.0 | 4.8 | 0.00 | 0.00 | 0.00 | 90 | 1018.0 |
| 20260906073039 | 18 | 76 | 3.2 | 6.4 | 0.00 | 0.00 | 0.00 | 89 | 1017.8 |
| 20260906071541 | 18 | 59 | 0.0 | 3.2 | 0.00 | 0.00 | 0.00 | 89 | 1017.9 |
| 20260906070035 | 18 | 116 | 1.6 | 6.4 | 0.00 | 0.00 | 0.00 | 89 | 1017.9 |
| 20260906064533 | 19 | 57 | 3.2 | 8.0 | 0.00 | 0.00 | 0.00 | 90 | 1018.1 |
| 20260906063035 | 19 | 23 | 1.6 | 4.8 | 0.00 | 0.00 | 0.00 | 90 | 1018.0 |
| 20260906061536 | 20 | 25 | 1.6 | 8.0 | 0.00 | 0.00 | 0.00 | 90 | 1017.9 |
| 20260906060037 | 20 | 51 | 4.8 | 8.0 | 0.00 | 0.00 | 0.00 | 90 | 1017.8 |
| 20260906054534 | 20 | 0 | 1.6 | 6.4 | 0.00 | 0.00 | 0.00 | 90 | 1017.6 |
| 20260906053033 | 20 | 42 | 3.2 | 8.0 | 0.00 | 0.00 | 0.00 | 90 | 1017.3 |
| 20260906051534 | 21 | 52 | 1.6 | 6.4 | 0.00 | 0.00 | 0.00 | 89 | 1017.3 |
| 20260906050035 | 21 | 0 | 0.0 | 6.4 | 0.00 | 0.00 | 0.00 | 89 | 1017.3 |
| 20260906044533 | 21 | 0 | 0.0 | 4.8 | 0.00 | 0.00 | 0.00 | 88 | 1017.2 |
| 20260906043033 | 21 | 13 | 0.0 | 4.8 | 0.00 | 0.00 | 0.00 | 88 | 1017.2 |
| 20260906041535 | 21 | 0 | 0.0 | 6.4 | 0.00 | 0.00 | 0.00 | 87 | 1017.1 |
| 20260906040039 | 21 | 0 | 0.0 | 6.4 | 0.00 | 0.00 | 0.00 | 87 | 1017.2 |
| 20260906034542 | 21 | 0 | 0.0 | 6.4 | 0.00 | 0.00 | 0.00 | 87 | 1017.1 |
| 20260906033032 | 21 | 0 | 0.0 | 6.4 | 0.00 | 0.00 | 0.00 | 87 | 1016.9 |
| 20260906031531 | 21 | 0 | 1.6 | 6.4 | 0.00 | 0.00 | 0.00 | 87 | 1016.9 |
| 20260906030036 | 21 | 0 | 0.0 | 3.2 | 0.00 | 0.00 | 0.00 | 86 | 1016.8 |
| 20260906024534 | 21 | 0 | 0.0 | 4.8 | 0.00 | 0.00 | 0.00 | 86 | 1017.0 |
| 20260906023033 | 21 | 46 | 1.6 | 6.4 | 0.00 | 0.00 | 0.00 | 85 | 1016.8 |
| 20260906021538 | 22 | 37 | 1.6 | 4.8 | 0.00 | 0.00 | 0.00 | 84 | 1016.6 |
| 20260906020044 | 22 | 15 | 3.2 | 11.3 | 0.00 | 0.00 | 0.00 | 84 | 1016.6 |
| 20260906014549 | 22 | 13 | 4.8 | 11.3 | 0.00 | 0.00 | 0.00 | 83 | 1016.4 |
| 20260906013033 | 22 | 0 | 3.2 | 8.0 | 0.00 | 0.00 | 0.00 | 83 | 1016.3 |
| 20260906011540 | 22 | 14 | 3.2 | 12.9 | 0.00 | 0.00 | 0.00 | 83 | 1016.1 |
| 20260906010035 | 22 | 48 | 4.8 | 16.1 | 0.00 | 0.00 | 0.00 | 83 | 1016.0 |
| 20260906004538 | 22 | 69 | 4.8 | 17.7 | 0.00 | 0.00 | 0.00 | 84 | 1015.9 |
| 20260906003048 | 22 | 51 | 3.2 | 9.7 | 0.00 | 0.00 | 0.00 | 84 | 1015.8 |
| 20260906001535 | 22 | 74 | 4.8 | 12.9 | 0.00 | 0.00 | 0.00 | 84 | 1015.5 |
| 20260906000036 | 23 | 37 | 1.6 | 14.5 | 0.00 | 0.00 | 0.00 | 84 | 1015.4 |
| 20260905234535 | 23 | 40 | 8.0 | 19.3 | 0.00 | 0.00 | 0.00 | 83 | 1015.1 |
| 20260905233035 | 23 | 30 | 6.4 | 17.7 | 0.00 | 0.00 | 0.00 | 82 | 1015.2 |
| 20260905231539 | 24 | 18 | 4.8 | 16.1 | 0.00 | 0.00 | 0.00 | 82 | 1015.2 |
| 20260905230035 | 25 | 41 | 6.4 | 20.9 | 0.00 | 0.00 | 0.00 | 82 | 1015.0 |
| 20260905224534 | 25 | 348 | 8.0 | 20.9 | 0.00 | 0.00 | 0.00 | 80 | 1014.9 |
| 20260905223032 | 26 | 36 | 3.2 | 12.9 | 0.00 | 0.00 | 0.00 | 79 | 1014.6 |
| 20260905221537 | 26 | 5 | 6.4 | 14.5 | 0.00 | 0.00 | 0.00 | 78 | 1014.2 |
| 20260905220041 | 26 | 13 | 4.8 | 20.9 | 0.00 | 0.00 | 0.00 | 76 | 1014.0 |
| 20260905214535 | 27 | 40 | 9.7 | 16.1 | 0.00 | 0.00 | 0.00 | 75 | 1014.1 |
| 20260905213040 | 27 | 44 | 3.2 | 11.3 | 0.00 | 0.00 | 0.00 | 76 | 1014.0 |
| 20260905211539 | 27 | 63 | 9.7 | 19.3 | 0.00 | 0.00 | 0.00 | 73 | 1014.0 |
| 20260905210031 | 27 | 5 | 6.4 | 16.1 | 0.00 | 0.00 | 0.00 | 74 | 1013.9 |
| 20260905204533 | 27 | 44 | 6.4 | 17.7 | 0.00 | 0.00 | 0.00 | 75 | 1014.0 |
| 20260905203034 | 27 | 360 | 8.0 | 16.1 | 0.00 | 0.00 | 0.00 | 73 | 1013.8 |
| 20260905201538 | 27 | 5 | 4.8 | 14.5 | 0.00 | 0.00 | 0.00 | 75 | 1014.0 |
| 20260905200038 | 28 | 323 | 9.7 | 16.1 | 0.00 | 0.00 | 0.00 | 73 | 1014.2 |
| 20260905194541 | 28 | 34 | 3.2 | 20.9 | 0.00 | 0.00 | 0.00 | 74 | 1014.3 |
| 20260905193033 | 28 | 346 | 6.4 | 14.5 | 0.00 | 0.00 | 0.00 | 72 | 1014.2 |
| 20260905191534 | 28 | 37 | 4.8 | 16.1 | 0.00 | 0.00 | 0.00 | 72 | 1014.2 |
| 20260905190036 | 28 | 76 | 6.4 | 19.3 | 0.00 | 0.00 | 0.00 | 71 | 1014.2 |
| 20260905184535 | 28 | 360 | 6.4 | 14.5 | 0.00 | 0.00 | 0.00 | 70 | 1014.4 |
| 20260905183034 | 28 | 342 | 1.6 | 14.5 | 0.00 | 0.00 | 0.00 | 74 | 1014.3 |
| 20260905181541 | 28 | 25 | 6.4 | 14.5 | 0.00 | 0.00 | 0.00 | 74 | 1014.4 |
| 20260905180034 | 27 | 23 | 4.8 | 14.5 | 0.00 | 0.00 | 0.00 | 74 | 1014.5 |
| 20260905174535 | 27 | 346 | 1.6 | 9.7 | 0.00 | 0.36 | 0.00 | 75 | 1014.5 |
| 20260905173033 | 27 | 0 | 0.0 | 6.4 | 0.00 | 0.36 | 0.00 | 75 | 1014.6 |
| 20260905171535 | 27 | 5 | 4.8 | 16.1 | 0.00 | 0.36 | 0.00 | 75 | 1014.7 |
| 20260905170043 | 28 | 57 | 4.8 | 12.9 | 0.00 | 0.36 | 0.00 | 74 | 1014.9 |
| 20260905164535 | 28 | 86 | 0.0 | 8.0 | 0.00 | 0.43 | 0.00 | 75 | 1014.9 |
| 20260905163037 | 27 | 46 | 0.0 | 6.4 | 0.00 | 0.43 | 0.00 | 77 | 1014.9 |
| 20260905161535 | 27 | 194 | 1.6 | 9.7 | 0.00 | 0.43 | 0.00 | 79 | 1014.9 |
| 20260905160044 | 26 | 0 | 1.6 | 4.8 | 0.00 | 0.43 | 0.00 | 79 | 1014.9 |
| 20260905154533 | 26 | 0 | 0.0 | 8.0 | 0.00 | 0.43 | 0.00 | 81 | 1014.9 |
| 20260905153038 | 26 | 238 | 0.0 | 6.4 | 0.00 | 0.43 | 0.00 | 82 | 1015.0 |
| 20260905151536 | 25 | 0 | 0.0 | 8.0 | 0.00 | 0.43 | 0.00 | 82 | 1015.0 |
| 20260905150039 | 25 | 39 | 1.6 | 8.0 | 0.00 | 0.43 | 0.00 | 83 | 1015.0 |
| 20260905144541 | 24 | 51 | 0.0 | 6.4 | 0.00 | 0.43 | 0.00 | 84 | 1015.0 |
| 20260905143048 | 23 | 0 | 0.0 | 4.8 | 0.00 | 0.43 | 0.00 | 86 | 1015.1 |
| 20260905141536 | 23 | 86 | 0.0 | 6.4 | 0.00 | 0.43 | 0.00 | 87 | 1015.0 |
| 20260905140035 | 23 | 351 | 3.2 | 6.4 | 0.00 | 0.43 | 0.00 | 87 | 1015.0 |
| 20260905134534 | 23 | 104 | 0.0 | 4.8 | 0.00 | 0.43 | 0.00 | 88 | 1014.6 |
| 20260905133033 | 22 | 54 | 1.6 | 8.0 | 0.00 | 0.43 | 0.00 | 88 | 1014.7 |
| 20260905131546 | 22 | 0 | 0.0 | 8.0 | 0.00 | 0.43 | 0.00 | 89 | 1014.6 |
| 20260905130034 | 22 | 84 | 0.0 | 6.4 | 0.00 | 0.43 | 0.00 | 89 | 1014.5 |
| 20260905124541 | 23 | 12 | 0.0 | 8.0 | 0.00 | 0.43 | 0.00 | 89 | 1014.6 |
| 20260905123037 | 23 | 0 | 0.0 | 6.4 | 0.00 | 0.43 | 0.00 | 89 | 1014.3 |
| 20260905121535 | 22 | 0 | 0.0 | 1.6 | 0.00 | 0.43 | 0.00 | 91 | 1014.0 |
| 20260905120034 | 22 | 0 | 0.0 | 3.2 | 0.00 | 0.43 | 0.00 | 92 | 1013.8 |
| 20260905114542 | 22 | 0 | 0.0 | 0.0 | 0.00 | 0.43 | 0.00 | 92 | 1013.8 |
| 20260905113038 | 22 | 104 | 0.0 | 4.8 | 0.00 | 0.43 | 0.00 | 92 | 1013.8 |
| 20260905111533 | 22 | 57 | 0.0 | 3.2 | 0.00 | 0.43 | 0.00 | 92 | 1013.6 |
| 20260905110035 | 22 | 0 | 0.0 | 3.2 | 0.00 | 0.43 | 0.00 | 92 | 1013.3 |
| 20260905104532 | 22 | 181 | 0.0 | 6.4 | 0.00 | 0.43 | 0.00 | 92 | 1013.3 |